Regional Weather Roundup
Issued by NWS Goodland, KS

Home | Current Version | Previous Version | Text Only | Print | Product List | Glossary Off
Versions: 1 2 3 4 5 6 7 8 9 10 11 12 13 14 15 16 17 18 19 20 21 22 23 24 25 26 27 28 29 30 31 32 33 34 35 36 37 38 39 40 41 42 43 44 45 46 47 48 49 50

000
ASUS43 KGLD 221059
RWRGLD

GOODLAND FORECAST AREA HOURLY WEATHER ROUNDUP
NATIONAL WEATHER SERVICE GOODLAND KS
500 AM MDT SUN APR 22 2018

...OFFICIAL OBSERVATIONS...

CITY           SKY/WX    TMP DP  RH WIND       PRES   REMARKS
GOODLAND KS    CLOUDY    38  37  97 CALM      30.21S FOG
HILL CITY KS   CLOUDY    42  41  96 NW6       30.22S FOG
IMPERIAL NEB   CLOUDY    39  39 100 S5        30.21S
MCCOOK NEB     CLOUDY    40  40 100 CALM      30.22S FOG
AKRON CO       CLEAR     32  30  92 S7        30.16R
BURLINGTON CO  CLOUDY    33  33 100 SW3       30.20S
LIMON CO       CLOUDY    35  34  96 S5        30.15F
$$

...UNOFFICIAL OBSERVATIONS...

CITY           SKY/WX    TMP DP  RH WIND       PRES   REMARKS
NORTON KS      PTCLDY    37  37 100 NW3       30.21  FOG
KIT CARSON CO    N/A     33  30  88 CALM        N/A
YUMA CO        FOG       32  32 100 E5        30.18S VSB 1/4
$$



USA.gov is the U.S. government's official web portal to all federal, state and local government web resources and services.